Hutchinson, MN

8:56 PM CDT on August 23, 2017 (GMT -0500)
Hutchinson Municipal-Butler

Weather History for KHCD - July, 2012

Change the Weather History Date:

Wednesday, July 18, 2012

  Actual Average Record
Temperature  
Mean Temperature 75 °F -  
Max Temperature 81 °F 86 °F 98 °F (1964)
Min Temperature 69 °F 64 °F 52 °F (1984)
Cooling Degree Days 10    
Growing Degree Days 25 (Base 50)    
Moisture  
Dew Point 71 °F    
Average Humidity 87    
Maximum Humidity 97    
Minimum Humidity 74    
Precipitation  
Precipitation 0.00 in - - ()
Sea Level Pressure  
Sea Level Pressure 29.89 in    
Wind  
Wind Speed 8 mph (ENE)    
Max Wind Speed 15 mph    
Max Gust Speed 22 mph    
Visibility 10 miles    
Events Rain , Thunderstorm    
Averages and records for this station are not official NWS values.
T = Trace of Precipitation, MM = Missing Value Source: NWS Daily Summary

Daily Weather History Graph

Daily Weather History Graph

Search for Another Location

Airport or City:

Trip Planner

Search our weather history database for the weather conditions in past years. The results will help you decide how hot, cold, wet, or windy it might be!

Date:

Astronomy

Jul. 18, 2012 Rise Set
Actual Time 5:48 AM CDT 8:58 PM CDT
Civil Twilight 5:13 AM CDT 9:33 PM CDT
Nautical Twilight 4:27 AM CDT 10:18 PM CDT
Astronomical Twilight 3:32 AM CDT 11:13 PM CDT
Moon 5:25 AM CDT (7/18) 8:25 PM CDT (7/18)
Length of Visible Light 16h 19m
Length of Day
15h 09m
Waning Crescent, 0% of the Moon is Illuminated
Jul 18
Waning Crescent
Jul 18
New
Jul 26
First Quarter
Aug 1
Full
Aug 9
Last Quarter

Hourly Weather History & Observations

Time (CDT) Temp. Heat Index Dew Point Humidity Pressure Visibility Wind Dir Wind Speed Gust Speed Precip Events Conditions
12:10 AM 73.4 °F - 69.8 °F 88% 29.89 in 10.0 mi NE 8.1 mph - N/A   Scattered Clouds
12:30 AM 73.4 °F - 69.8 °F 88% 29.89 in 10.0 mi NNE 9.2 mph - N/A   Clear
12:55 AM 73.4 °F - 69.8 °F 88% 29.88 in 10.0 mi NE 6.9 mph - N/A   Scattered Clouds
1:10 AM 73.4 °F - 69.8 °F 88% 29.89 in 10.0 mi NE 10.4 mph - N/A   Scattered Clouds
1:30 AM 73.4 °F - 71.6 °F 94% 29.87 in 10.0 mi ENE 9.2 mph - N/A   Scattered Clouds
2:10 AM 74.3 °F - 70.2 °F 87% 29.88 in 10.0 mi East 6.9 mph - N/A Thunderstorm Thunderstorm
2:30 AM 74.3 °F - 69.8 °F 86% 29.86 in 10.0 mi ESE 11.5 mph - N/A Thunderstorm Thunderstorm
2:50 AM 74.3 °F - 69.1 °F 84% 29.86 in 10.0 mi East 6.9 mph - N/A   Clear
3:10 AM 74.3 °F - 69.8 °F 86% 29.85 in 10.0 mi ENE 8.1 mph - N/A   Clear
3:25 AM 74.3 °F - 70.7 °F 88% 29.84 in 10.0 mi ENE 8.1 mph - N/A   Clear
3:55 AM 73.4 °F - 71.6 °F 94% 29.85 in 10.0 mi East 6.9 mph - N/A   Clear
4:10 AM 73.4 °F - 71.6 °F 94% 29.84 in 10.0 mi East 6.9 mph - N/A   Clear
4:35 AM 71.6 °F - 69.8 °F 94% 29.85 in 10.0 mi ENE 8.1 mph - N/A   Clear
4:51 AM 71.8 °F - 70.2 °F 95% 29.85 in 10.0 mi ENE 6.9 mph - N/A   Clear
5:10 AM 70.7 °F - 69.3 °F 95% 29.86 in 10.0 mi NE 4.6 mph - N/A   Clear
5:30 AM 69.8 °F - 68.9 °F 97% 29.86 in 10.0 mi NE 5.8 mph - N/A   Mostly Cloudy
5:50 AM 69.4 °F - 68.5 °F 97% 29.86 in 10.0 mi NE 6.9 mph - N/A   Mostly Cloudy
6:11 AM 69.3 °F - 68.4 °F 97% 29.86 in 10.0 mi NE 6.9 mph - N/A   Mostly Cloudy
6:30 AM 69.6 °F - 68.7 °F 97% 29.86 in 10.0 mi ENE 9.2 mph - N/A   Scattered Clouds
6:50 AM 70.7 °F - 69.3 °F 95% 29.86 in 10.0 mi ENE 8.1 mph - N/A   Scattered Clouds
7:11 AM 71.8 °F - 70.2 °F 95% 29.86 in 10.0 mi ENE 5.8 mph - N/A   Mostly Cloudy
7:30 AM 74.3 °F - 72.5 °F 94% 29.86 in 10.0 mi East 6.9 mph - N/A Thunderstorm Overcast
7:50 AM 74.3 °F - 72.5 °F 94% 29.86 in 10.0 mi East 6.9 mph - N/A   Mostly Cloudy
8:10 AM 74.3 °F - 71.6 °F 91% 29.90 in 10.0 mi NW 5.8 mph 19.6 mph N/A   Mostly Cloudy
8:30 AM 71.8 °F - 70.2 °F 95% 29.93 in 10.0 mi WNW 12.7 mph 17.3 mph N/A Thunderstorm Overcast
8:50 AM 70.7 °F - 68.9 °F 94% 29.93 in 7.0 mi NW 13.8 mph 20.7 mph N/A Thunderstorm Overcast
9:30 AM 71.8 °F - 69.8 °F 93% 29.91 in 10.0 mi NNE 10.4 mph - N/A Rain Light Rain
9:51 AM 71.8 °F - 69.4 °F 92% 29.91 in 10.0 mi NNE 10.4 mph - N/A   Scattered Clouds
10:10 AM 71.8 °F - 69.1 °F 91% 29.91 in 10.0 mi NE 13.8 mph - N/A   Scattered Clouds
10:30 AM 71.8 °F - 69.1 °F 91% 29.90 in 10.0 mi NE 12.7 mph - N/A   Scattered Clouds
10:50 AM 74.3 °F - 70.9 °F 89% 29.90 in 10.0 mi ENE 10.4 mph 16.1 mph N/A   Clear
11:10 AM 74.3 °F - 70.3 °F 87% 29.89 in 10.0 mi East 13.8 mph 21.9 mph N/A   Clear
11:30 AM 74.3 °F - 69.8 °F 86% 29.89 in 10.0 mi East 13.8 mph 19.6 mph N/A   Clear
11:51 AM 76.5 °F - 71.2 °F 84% 29.90 in 10.0 mi East 15.0 mph 20.7 mph N/A   Scattered Clouds
12:10 PM 77.0 °F - 71.6 °F 83% 29.91 in 10.0 mi ENE 13.8 mph 18.4 mph N/A   Mostly Cloudy
12:30 PM 77.0 °F - 70.5 °F 80% 29.91 in 10.0 mi ENE 12.7 mph 18.4 mph N/A   Overcast
12:50 PM 79.3 °F - 71.4 °F 77% 29.90 in 10.0 mi ENE 10.4 mph 17.3 mph N/A   Mostly Cloudy
1:10 PM 80.6 °F 84.7 °F 72.0 °F 75% 29.90 in 10.0 mi East 15.0 mph - N/A   Scattered Clouds
1:31 PM 79.3 °F - 71.1 °F 76% 29.90 in 10.0 mi ENE 11.5 mph 16.1 mph N/A   Scattered Clouds
2:10 PM 80.4 °F 84.2 °F 71.6 °F 74% 29.90 in 10.0 mi East 6.9 mph - N/A   Mostly Cloudy
2:31 PM 79.3 °F - 72.5 °F 79% 29.92 in 10.0 mi Calm Calm - N/A   Overcast
2:50 PM 79.3 °F - 72.1 °F 79% 29.91 in 10.0 mi Calm Calm - N/A Thunderstorm Overcast
3:10 PM 79.3 °F - 72.3 °F 79% 29.91 in 10.0 mi Calm Calm - N/A   Overcast
3:30 PM 80.6 °F 84.7 °F 72.0 °F 75% 29.89 in 10.0 mi Calm Calm - N/A   Overcast
3:50 PM 81.9 °F 87.0 °F 72.9 °F 74% 29.86 in 10.0 mi NNE 5.8 mph - N/A   Scattered Clouds
4:11 PM 80.6 °F 84.7 °F 72.1 °F 75% 29.86 in 10.0 mi NNE 6.9 mph - N/A   Scattered Clouds
4:23 PM 80.2 °F 84.5 °F 72.7 °F 78% 29.88 in 10.0 mi NE 8.1 mph - N/A   Mostly Cloudy
4:55 PM 78.8 °F - 71.6 °F 78% 29.89 in 10.0 mi ENE 9.2 mph - N/A   Overcast
5:15 PM 78.8 °F - 71.6 °F 78% 29.89 in 10.0 mi ENE 8.1 mph - N/A   Mostly Cloudy
5:30 PM 78.8 °F - 73.4 °F 83% 29.90 in 10.0 mi ENE 8.1 mph - N/A   Scattered Clouds
5:45 PM 79.3 °F - 72.9 °F 80% 29.89 in 10.0 mi NE 6.9 mph - N/A   Scattered Clouds
6:10 PM 79.3 °F - 73.4 °F 82% 29.90 in 10.0 mi East 6.9 mph - N/A   Overcast
6:30 PM 79.3 °F - 72.9 °F 80% 29.89 in 10.0 mi ENE 5.8 mph - N/A   Scattered Clouds
6:51 PM 79.3 °F - 72.9 °F 80% 29.89 in 10.0 mi ENE 4.6 mph - N/A   Clear
7:10 PM 79.3 °F - 72.9 °F 80% 29.88 in 10.0 mi NE 4.6 mph - N/A   Mostly Cloudy
7:30 PM 79.3 °F - 73.0 °F 81% 29.89 in 10.0 mi ENE 5.8 mph - N/A   Scattered Clouds
7:50 PM 79.3 °F - 72.7 °F 80% 29.88 in 10.0 mi ENE 6.9 mph - N/A   Clear
8:11 PM 77.5 °F - 71.4 °F 81% 29.89 in 10.0 mi ENE 4.6 mph - N/A   Clear
8:30 PM 77.0 °F - 71.1 °F 82% 29.88 in 10.0 mi NE 5.8 mph - N/A   Clear
8:50 PM 76.6 °F - 71.6 °F 84% 29.89 in 10.0 mi NE 5.8 mph - N/A   Clear
9:10 PM 74.3 °F - 70.0 °F 86% 29.90 in 10.0 mi NE 4.6 mph - N/A   Clear
9:30 PM 74.3 °F - 70.9 °F 89% 29.91 in 10.0 mi ENE 5.8 mph - N/A   Clear
9:50 PM 74.3 °F - 71.6 °F 91% 29.93 in 10.0 mi ENE 6.9 mph - N/A   Clear
10:11 PM 74.3 °F - 72.1 °F 93% 29.93 in 10.0 mi ENE 5.8 mph - N/A   Clear
10:30 PM 74.3 °F - 72.5 °F 94% 29.93 in 10.0 mi NE 6.9 mph - N/A   Clear
10:50 PM 72.5 °F - 70.9 °F 95% 29.94 in 10.0 mi NE 6.9 mph - N/A   Clear
11:10 PM 71.8 °F - 70.3 °F 95% 29.94 in 10.0 mi ENE 6.9 mph - N/A   Clear
11:29 PM 71.6 °F - 70.2 °F 95% 29.95 in 10.0 mi NE 5.8 mph - N/A   Clear
11:50 PM 70.7 °F - 69.3 °F 95% 29.95 in 10.0 mi NE 5.8 mph - N/A   Scattered Clouds